Weather History for KWRI - February, 2013

Change the Weather History Date:

Friday, February 22, 2013

  Actual Average Record
Temperature  
Mean Temperature 29 °F -  
Max Temperature 37 °F 44 °F 68 °F (1997)
Min Temperature 21 °F 26 °F 15 °F (1999)
Degree Days  
Heating Degree Days 36    
Moisture  
Dew Point 25 °F    
Average Humidity 78    
Maximum Humidity 94    
Minimum Humidity 54    
Precipitation  
Precipitation 0.00 in - - ()
Sea Level Pressure  
Sea Level Pressure 30.30 in    
Wind  
Wind Speed 5 mph (North)    
Max Wind Speed 9 mph    
Max Gust Speed -    
Visibility 10 miles    
Events Rain    
Averages and records for this station are not official NWS values.
T = Trace of Precipitation, MM = Missing Value Source: NWS Daily Summary

Daily Weather History Graph

Daily Weather History Graph

Search for Another Location

Airport or City:

Trip Planner

Search our weather history database for the weather conditions in past years. The results will help you decide how hot, cold, wet, or windy it might be!

Date:

Astronomy

Feb. 22, 2013 Rise Set
Actual Time 6:41 AM EST 5:42 PM EST
Civil Twilight 6:14 AM EST 6:10 PM EST
Nautical Twilight 5:42 AM EST 6:41 PM EST
Astronomical Twilight 5:11 AM EST 7:12 PM EST
Moon 2:51 PM EST (2/22) 4:25 AM EST (2/22)
Length of Visible Light 11h 55m
Length of Day
11h 01m
Waxing Gibbous, 90% of the Moon is Illuminated
Feb 22
Waxing Gibbous
Feb 25
Full
Mar 4
Last Quarter
Mar 11
New
Mar 19
First Quarter

Hourly Weather History & Observations

Time (EST) Temp. Windchill Dew Point Humidity Pressure Visibility Wind Dir Wind Speed Gust Speed Precip Events Conditions
12:55 AM 23.4 °F 15.2 °F 12.9 °F 64% 30.28 in 10.0 mi NW 6.9 mph - N/A   Clear
1:55 AM 21.4 °F 12.8 °F 13.3 °F 71% 30.29 in 10.0 mi NNW 6.9 mph - N/A   Clear
2:55 AM 21.7 °F 13.2 °F 13.5 °F 70% 30.30 in 10.0 mi WNW 6.9 mph - N/A   Clear
3:55 AM 22.1 °F 13.7 °F 14.2 °F 72% 30.32 in 10.0 mi NW 6.9 mph - N/A   Clear
4:55 AM 22.6 °F 15.3 °F 14.4 °F 71% 30.33 in 10.0 mi NW 5.8 mph - N/A   Clear
5:55 AM 23.0 °F 13.9 °F 14.2 °F 69% 30.37 in 10.0 mi WNW 8.1 mph - N/A   Clear
6:55 AM 23.2 °F 16.0 °F 15.1 °F 71% 30.36 in 10.0 mi North 5.8 mph - N/A   Clear
7:55 AM 25.0 °F 19.3 °F 16.0 °F 69% 30.39 in 10.0 mi NNW 4.6 mph - N/A   Scattered Clouds
8:55 AM 27.9 °F 20.6 °F 17.4 °F 65% 30.40 in 10.0 mi NNE 6.9 mph - N/A   Overcast
9:55 AM 30.9 °F 25.2 °F 18.7 °F 61% 30.38 in 10.0 mi NE 5.8 mph - N/A   Mostly Cloudy
10:55 AM 34.2 °F 26.8 °F 20.1 °F 57% 30.36 in 10.0 mi NE 9.2 mph - N/A   Overcast
11:55 AM 35.2 °F 32.4 °F 21.0 °F 56% 30.36 in 10.0 mi Variable 3.5 mph - N/A   Overcast
12:55 PM 37.6 °F 31.0 °F 22.5 °F 54% 30.32 in 10.0 mi East 9.2 mph - N/A   Overcast
1:55 PM 37.9 °F 32.1 °F 23.9 °F 57% 30.30 in 10.0 mi East 8.1 mph - N/A   Overcast
2:55 PM 37.4 °F 33.8 °F 24.6 °F 60% 30.30 in 10.0 mi ESE 4.6 mph - N/A   Overcast
3:55 PM 36.5 °F 30.3 °F 25.3 °F 64% 30.30 in 10.0 mi East 8.1 mph - N/A   Overcast
4:55 PM 35.6 °F 31.7 °F 25.9 °F 68% 30.30 in 10.0 mi East 4.6 mph - N/A   Overcast
5:55 PM 35.1 °F 31.0 °F 26.4 °F 71% 30.30 in 10.0 mi East 4.6 mph - N/A   Overcast
6:55 PM 34.9 °F 32.0 °F 27.7 °F 75% 30.30 in 10.0 mi East 3.5 mph - N/A   Overcast
7:55 PM 34.5 °F - 27.7 °F 76% 30.31 in 10.0 mi Calm Calm - N/A   Overcast
8:32 PM 33.8 °F - 28.4 °F 81% 30.30 in 10.0 mi Calm Calm - N/A   Overcast
8:44 PM 33.8 °F - 28.4 °F 81% 30.29 in 10.0 mi Calm Calm - N/A   Overcast
8:47 PM 33.8 °F - 28.4 °F 81% 30.29 in 10.0 mi Calm Calm - N/A   Overcast
8:55 PM 34.2 °F 31.2 °F 28.4 °F 79% 30.29 in 10.0 mi Variable 3.5 mph - 0.00 in   Overcast
9:15 PM 33.8 °F - 28.4 °F 81% 30.28 in 10.0 mi Calm Calm - N/A   Overcast
9:31 PM 33.8 °F - 28.4 °F 81% 30.28 in 10.0 mi Calm Calm - N/A   Mostly Cloudy
9:36 PM 33.8 °F - 30.2 °F 87% 30.27 in 10.0 mi Calm Calm - N/A   Mostly Cloudy
9:55 PM 33.6 °F - 29.7 °F 85% 30.28 in 10.0 mi Calm Calm - 0.00 in   Overcast
10:30 PM 33.8 °F - 30.2 °F 87% 30.27 in 10.0 mi Calm Calm - N/A Rain Light Rain
10:37 PM 33.8 °F - 32.0 °F 93% 30.27 in 10.0 mi Calm Calm - N/A   Overcast
10:39 PM 33.8 °F - 32.0 °F 93% 30.27 in 10.0 mi Calm Calm - N/A Rain Light Rain
10:46 PM 33.8 °F 30.8 °F 32.0 °F 93% 30.27 in 9.0 mi NW 3.5 mph - N/A Rain Light Rain
10:53 PM 33.8 °F 30.8 °F 32.0 °F 93% 30.27 in 10.0 mi NNW 3.5 mph - N/A   Overcast
10:55 PM 33.6 °F 30.6 °F 31.6 °F 92% 30.27 in 10.0 mi NNW 3.5 mph - 0.00 in   Overcast
11:02 PM 33.8 °F 30.8 °F 32.0 °F 93% 30.26 in 10.0 mi NNW 3.5 mph - N/A Rain Light Rain
11:18 PM 33.8 °F 29.6 °F 32.0 °F 93% 30.25 in 10.0 mi North 4.6 mph - N/A   Overcast
11:30 PM 33.8 °F 30.8 °F 32.0 °F 93% 30.25 in 10.0 mi North 3.5 mph - N/A   Overcast
11:34 PM 33.8 °F 30.8 °F 32.0 °F 93% 30.25 in 10.0 mi NNE 3.5 mph - N/A   Overcast
11:36 PM 33.8 °F 30.8 °F 32.0 °F 93% 30.25 in 10.0 mi North 3.5 mph - N/A   Overcast
11:38 PM 33.8 °F - 32.0 °F 93% 30.25 in 10.0 mi Calm Calm - N/A   Overcast
11:55 PM 33.3 °F 30.2 °F 31.6 °F 94% 30.25 in 10.0 mi NE 3.5 mph - 0.00 in   Overcast